Powrót do katalogu

STARLINK-5007

AktywnyŁącznośćVLEO
NORAD 57365·PAYLOAD·🇺🇸 United States

Wystrzelony Jul 16, 2023 z Cape Canaveral Space Force Station

Loading…

Następne Przeloty (najbliższe 24 godziny)

TLE

ŚwieżeSource: CelesTrak SupGP

Epoka: Sep 15, 2026, 02:15 UTC

1 57365C 23099AP  26258.09423611 -.00022510  00000+0 -81531-3 0  2588
2 57365  42.9991 252.0328 0001364 261.5583 185.8847 15.27589397    16

Śledź STARLINK-5007 w czasie rzeczywistym z AllMySat

Download on the App Store